Regional Weather Roundup
Issued by NWS

Home | Current Version | Previous Version | Text Only | Print | Product List | Glossary On
Versions: 1 2 3 4 5 6 7 8 9 10 11 12 13 14 15 16 17 18 19 20 21 22 23 24 25 26 27 28 29 30 31 32 33 34 35 36 37 38 39 40 41 42 43 44 45 46 47 48 49 50
000
ASUS43 KMPX 300610
RWRMN
WEATHER ROUNDUP FOR MINNESOTA
NATIONAL WEATHER SERVICE TWIN CITIES/CHANHASSEN MN
100 AM CDT SAT MAY 30 2015


NOTE: "FAIR" INDICATES FEW OR NO CLOUDS BELOW 12,000 FEET WITH NO
SIGNIFICANT WEATHER AND/OR OBSTRUCTIONS TO VISIBILITY. N/A MEANS
CURRENT SKY AND/OR WEATHER CONDITIONS ARE NOT AVAILABLE.

MNZ060>063-068>070-300700-
   Twin Cities Metro

CITY           SKY/WX    TMP DP  RH WIND       PRES   REMARKS
TWIN CITIES    CLOUDY    54  50  86 N14       30.07R
6HR MIN TEMP:  54; 6HR MAX TEMP:  62; 6HR PCP:  0.06;

ST PAUL        CLOUDY    54  48  80 N15G25    30.07R
CRYSTAL        CLOUDY    54  47  77 N12       30.07R
BLAINE         CLOUDY    54  52  94 N13       30.08S
LAKEVILLE      CLOUDY    52  50  93 N14       30.05S
EDEN PRAIRIE   CLOUDY    54  47  77 N12       30.05S
6HR MIN TEMP:  54; 6HR MAX TEMP:  60; 6HR PCP:  0.01;

SOUTH ST PAUL  CLOUDY    55  48  79 N17G24    30.06R
LAKE ELMO      CLOUDY    52  46  82 N10G17    30.07S
$$
MNZ001>005-007-008-013>017-022>024-027-028-300700-
   Northwest Minnesota

CITY           SKY/WX    TMP DP  RH WIND       PRES   REMARKS
BEMIDJI        CLEAR     41  34  75 N8        30.23R
HALLOCK        CLEAR     37  25  60 N13G18    30.35S
ROSEAU         CLEAR     37  30  75 N10       30.31R
WARROAD        CLEAR     36  30  80 NW10G17   30.30R
THIEF RVR FALL CLEAR     37  28  70 N15       30.31R
CROOKSTON      CLEAR     37  28  70 N15       30.32S
FOSSTON        CLEAR     36  30  80 N15       30.27S
DETROIT LAKES  PTCLDY    41  34  75 N9G21     30.24S
MOORHEAD       PTCLDY    43  34  70 N17       30.28R
PARK RAPIDS    PTCLDY    46  33  60 N16G24    30.19S
MAHNOMEN       FAIR      38  32  77 N12       30.26S
$$
MNZ006-009>011-018-025>026-300700-
   North Central Minnesota

CITY           SKY/WX    TMP DP  RH WIND       PRES   REMARKS
BAUDETTE       MOCLDY    43  30  60 N12       30.25R
FLAG ISLAND    PTCLDY    39  28  65 N24G32    30.29R
INTL FALLS     PTCLDY    42  33  70 N12       30.21R
6HR MIN TEMP:  40; 6HR MAX TEMP:  51;

WASKISH        CLOUDY    43  36  75 NW10G17   30.24R
BIG FORK       PTCLDY    43  36  75 N5        30.20R
LONGVILLE      MOCLDY    46  37  71 N6        30.17S
GRAND RAPIDS   PTCLDY    45  34  65 N12G17    30.17R
CRANE LAKE     MOCLDY    45  36  70 N7        30.18
ORR            PTCLDY    45  36  70 CALM      30.15R
COOK           MOCLDY    43  36  75 CALM      30.17R
WALKER         FAIR      45  35  69 N8        30.19F
$$
MNZ012-019>021-037-300700-
   Northeast Minnesota

CITY           SKY/WX    TMP DP  RH WIND       PRES   REMARKS
DULUTH         MOCLDY    48  39  71 N9        30.11R
6HR MIN TEMP:  47; 6HR MAX TEMP:  53;

HIBBING        CLOUDY    45  35  68 N13       30.15R
EVELETH        CLOUDY    45  36  70 N12G20    30.14S
DULUTH HARBOR  PTCLDY    52  43  71 N10       30.13R
TWO HARBORS    MOCLDY    50  43  76 NW3       30.09R
SILVER BAY     MOCLDY    48  39  71 NW7       30.07S
GRAND MARAIS     N/A     53  41  63 N16G32    30.02R
G MARAIS ARPRT CLOUDY    45  37  76 NW14      30.06S
$$
MNZ029>031-032-039>041-046>048-054>057-064-300700-
   West Central Minnesota

CITY           SKY/WX    TMP DP  RH WIND       PRES   REMARKS
FERGUS FALLS   MOCLDY    45  36  70 N16G22    30.23R
WHEATON        MOCLDY    43  36  75 NW16G23   30.25R
MORRIS         PTCLDY    46  41  81 N12       30.18S
ALEXANDRIA     PTCLDY    48  39  71 N14       30.19R
ELBOW LAKE     FAIR      46  37  72 N16G22    30.20R
WADENA         MOCLDY    45  37  76 N12       30.18S
GLENWOOD       CLEAR     46  43  87 N13       30.17R
APPLETON       PTCLDY    48  41  76 N16       30.18R
BENSON         CLEAR     48  41  76 N10       30.17R
ORTONVILLE     PTCLDY    46  37  71 N17G24    30.20R
MADISON        PTCLDY    46  39  76 N16       30.19R
WILLMAR        FAIR      50  45  81 N9        30.16R
$$
MNZ033>034-036-042>043-049>051-058-059-300700-
   Central Minnesota

CITY           SKY/WX    TMP DP  RH WIND       PRES   REMARKS
ST CLOUD       MOCLDY    49  42  77 N9        30.13R
6HR MIN TEMP:  49; 6HR MAX TEMP:  53;

SAUK CENTRE    FAIR      48  39  72 N12       30.16S
PAYNESVILLE    CLEAR     46  41  83 NW7       30.16R
AITKIN         PTCLDY    46  37  71 N9        30.14S
PINE RIVER     PTCLDY    46  37  71 N10       30.20S
BRAINERD       PTCLDY    48  40  73 N14G20    30.16R
STAPLES        MOCLDY    45  39  81 N8        30.18R
LONG PRAIRIE   FAIR      46  37  71 N8        30.17R
LITTLE FALLS   PTCLDY    46  37  71 N3        30.16R
LITCHFIELD     CLEAR     50  46  87 N10       30.13R
BUFFALO        PTCLDY    51  44  75 N10G16    30.11S
MAPLE LAKE     PTCLDY    51  46  80 N12G20    30.12R
$$
MNZ037-044-045-052-053-300700-
   East Central Minnesota

CITY           SKY/WX    TMP DP  RH WIND       PRES   REMARKS
PRINCETON      CLOUDY    54  45  71 N8        30.12R
MORA           CLOUDY    50  43  76 N6        30.14R
CAMBRIDGE      PTCLDY    52  41  66 N9G20     30.10R
RUSH CITY      MOCLDY    49  42  77 N9        30.11R
MOOSE LAKE     MOCLDY    46  37  71 N3        30.12R
HINCKLEY       FAIR      48  41  76 N8        30.12R
CLOQUET        MOCLDY    46  39  76 NW6       30.12S
MCGREGOR       PTCLDY    45  37  76 NW7       30.15S
$$
MNZ071>073-080-081-089-090-097-098-300700-
   Southwest Minnesota

CITY           SKY/WX    TMP DP  RH WIND       PRES   REMARKS
MONTEVIDEO     PTCLDY    48  45  87 N12       30.17R
GRANITE FALLS  PTCLDY    48  44  84 NW10      30.17R
CANBY          PTCLDY    46  40  80 N14G20    30.19F
MARSHALL       PTCLDY    48  39  71 N16       30.15R
REDWOOD FALLS  CLEAR     50  47  89 NW10      30.13R
OLIVIA         CLEAR     46  43  87 N9        30.13R
PIPESTONE      PTCLDY    48  43  81 N13G20    30.14S
WINDOM         CLOUDY    50  46  87 N17G23    30.11R
WORTHINGTON    CLOUDY    50  43  76 N20G29    30.11R
JACKSON        CLOUDY    52  46  82 VRB17G23  30.10R
TRACY          PTCLDY    48  46  91 N13G20    30.14S
SLAYTON        PTCLDY    47  45  93 N18G25    30.14R
$$
MNZ065>067-074>077-082>085-091>093-300700-
   South Central Minnesota

CITY           SKY/WX    TMP DP  RH WIND       PRES   REMARKS
MANKATO        CLOUDY    54  46  76 N17G24    30.06S
NEW ULM        CLOUDY    52  46  82 N10G17    30.09S
ST JAMES       CLOUDY    54  48  82 N16       30.10S
FAIRMONT       CLOUDY    52  45  76 N20G26    30.07R
GLENCOE        PTCLDY    52  47  81 N13G18    30.09R
FARIBAULT      CLOUDY    54  52  94 N12       30.05R
OWATONNA       CLOUDY    54  52  94 N18       30.03R
WASECA         CLOUDY    52  48  87 N17       30.05R
ALBERT LEA     CLOUDY    54  54 100 N17       30.01S
$$
MNZ078>079-086>088-094>096-300700-
   Southeast Minnesota

CITY           SKY/WX    TMP DP  RH WIND       PRES   REMARKS
ROCHESTER      LGT RAIN  56  55  97 N18       30.00R FOG
6HR MIN TEMP:  56; 6HR MAX TEMP:  65; 6HR PCP:  0.31;

RED WING       DRIZZLE   55  52  88 N13G18    30.01S
STANTON        CLOUDY    54  50  85 N15       30.03R
DODGE CENTER   DRIZZLE   54  54 100 N18       30.00S
WINONA         RAIN      61  59  94 N13G23    29.96R
AUSTIN         CLOUDY    54  52  94 N13G22    29.99S
PRESTON        LGT RAIN  59  57  94 N15G21    29.96R
$$
ABBREVIATIONS USED IN REMARKS
   TC - TEMPERATURES IN CELSIUS
  WCI - WIND CHILL INDEX
   HX - HEAT INDEX
  VSB - VISIBILITY
$$


USA.gov is the U.S. government's official web portal to all federal, state and local government web resources and services.